Flag for U.S.A. Weather past 2 weeks in St. Croix Falls, Wisconsin, U.S.A.

Now
59 °F

Broken clouds.


Feels Like: 57 °F
Forecast: 45 / 69 °F
Wind: 10 mph from Southeast

Location: L O Simenstad Municipal Airport


UV Index: 3 (Moderate)

Visibility: 10 mi


Pressure: 30.01 "Hg

Humidity: 59%

Dew point: 45 °F

Location of St. Croix FallsLocation

Historic Weather in St. Croix Falls

°F

St. Croix Falls temperature yesterday

Maximum temperature yesterday: 46 °F (at 3:35 PM)
Minimum temperature yesterday: 19 °F (at 4:15 AM)
Average temperature yesterday: 35 °F

Past Weeks' High & Low Weather Summary

 TemperatureHumidityPressure
High69 °F (Apr 9, 5:15 PM)100% (Apr 5, 3:35 AM)30.41 "Hg (Apr 5, 3:35 AM)
Low15 °F (Apr 5, 6:35 AM)21% (Apr 10, 4:15 PM)29.49 "Hg (Apr 9, 10:15 PM)
Average40 °F68%29.98 "Hg
* Reported Apr 4 6:15 PM — Apr 19 6:15 PM, St. Croix Falls, Weather by CustomWeather, © 2014

Note: Actual official high and low records may vary slightly from our data, if they occured in-between our weather recording intervals... More about our weather records

Advertising

Historic Weather Conditions — Data for Previous 24 hours

 ConditionsComfort  
Time TempWeatherWind HumidityBarometerVisibility
6:15 PM
Apr 19
60 °FScattered clouds.15 mph56%30.00 "Hg10 mi
5:55 PM61 °FPartly sunny.13 mph56%30.01 "Hg10 mi
5:15 PM60 °FPartly sunny.15 mph56%30.02 "Hg10 mi
4:55 PM60 °FBroken clouds.15 mph57%30.01 "Hg10 mi
4:15 PM58 °FOvercast.7 mph59%30.04 "Hg10 mi
3:55 PM57 °FOvercast.7 mph60%30.05 "Hg10 mi
3:35 PM57 °FLight rain. Overcast.7 mph61%30.05 "Hg10 mi
3:15 PM57 °FOvercast.8 mph57%30.06 "Hg10 mi
2:55 PM58 °FMostly cloudy.8 mph51%30.05 "Hg10 mi
2:35 PM58 °FBroken clouds.15 mph49%30.05 "Hg10 mi
2:15 PM57 °FMostly cloudy.12 mph50%30.05 "Hg10 mi
1:55 PM57 °FMore clouds than sun.12 mph48%30.06 "Hg10 mi
1:35 PM56 °FOvercast.16 mph49%30.06 "Hg10 mi
1:15 PM57 °FMore clouds than sun.21 mph48%30.05 "Hg10 mi
12:55 PM54 °FOvercast.21 mph50%30.07 "Hg10 mi
12:35 PM53 °FOvercast.17 mph49%30.07 "Hg10 mi
12:15 PM51 °FOvercast.22 mph50%30.08 "Hg10 mi
11:55 AM51 °FOvercast.21 mph52%30.09 "Hg10 mi
11:35 AM50 °FOvercast.20 mph53%30.10 "Hg10 mi
11:15 AM48 °FMostly cloudy.15 mph54%30.11 "Hg10 mi
10:55 AM47 °FOvercast.18 mph56%30.13 "Hg10 mi
10:35 AM46 °FOvercast.17 mph58%30.13 "Hg10 mi
10:15 AM46 °FMore clouds than sun.22 mph58%30.14 "Hg10 mi
9:55 AM45 °FOvercast.17 mph59%30.15 "Hg10 mi
9:35 AM44 °FOvercast.16 mph61%30.16 "Hg10 mi
9:15 AM43 °FMostly cloudy.18 mph63%30.16 "Hg10 mi
8:55 AM42 °FScattered clouds.15 mph67%30.16 "Hg10 mi
8:35 AM41 °FScattered clouds.15 mph68%30.17 "Hg10 mi
8:15 AM39 °FPartly sunny.16 mph71%30.16 "Hg10 mi
7:55 AM39 °FOvercast.20 mph72%30.18 "Hg10 mi
7:35 AM39 °FPartly sunny.17 mph73%30.19 "Hg10 mi
7:15 AM39 °FPassing clouds.16 mph73%30.19 "Hg10 mi
6:55 AM39 °FClear.13 mph73%30.19 "Hg10 mi
6:35 AM39 °FClear.18 mph73%30.18 "Hg10 mi
6:15 AM39 °FClear.18 mph73%30.17 "Hg10 mi
5:55 AM40 °FClear.17 mph71%30.16 "Hg10 mi
5:35 AM40 °FClear.21 mph71%30.17 "Hg10 mi
5:15 AM40 °FPassing clouds.24 mph69%30.17 "Hg10 mi
4:55 AM41 °FOvercast.20 mph67%30.21 "Hg10 mi
4:35 AM41 °FOvercast.18 mph65%30.21 "Hg10 mi
4:15 AM42 °FOvercast.14 mph61%30.21 "Hg10 mi
3:55 AM42 °FOvercast.17 mph59%30.21 "Hg10 mi
3:35 AM42 °FPassing clouds.18 mph59%30.21 "Hg10 mi
3:15 AM42 °FClear.21 mph57%30.20 "Hg10 mi
2:55 AM42 °FClear.21 mph56%30.20 "Hg10 mi
2:35 AM42 °FClear.23 mph56%30.21 "Hg10 mi
2:15 AM42 °FClear.23 mph54%30.21 "Hg10 mi
1:55 AM42 °FClear.21 mph55%30.22 "Hg10 mi
1:35 AM42 °FClear.22 mph54%30.22 "Hg10 mi
1:15 AM42 °FClear.20 mph55%30.24 "Hg10 mi
12:55 AM42 °FClear.17 mph57%30.24 "Hg10 mi
12:35 AM42 °FClear.15 mph57%30.24 "Hg10 mi
12:15 AM42 °FClear.16 mph59%30.24 "Hg10 mi
11:55 PM
Apr 18
42 °FClear.14 mph58%30.25 "Hg10 mi
11:35 PM41 °FClear.13 mph60%30.25 "Hg10 mi
11:15 PM41 °FClear.10 mph58%30.26 "Hg10 mi
10:55 PM40 °FClear.8 mph60%30.26 "Hg10 mi
10:15 PM40 °FClear.8 mph58%30.26 "Hg10 mi
9:55 PM41 °FClear.6 mph56%30.28 "Hg10 mi
9:15 PM41 °FClear.6 mph58%30.26 "Hg10 mi
8:55 PM42 °FSunny.7 mph56%30.27 "Hg10 mi
8:35 PM42 °FSunny.5 mph55%30.26 "Hg10 mi
8:15 PM43 °FSunny.6 mph52%30.26 "Hg10 mi
7:55 PM44 °FScattered clouds.8 mph52%30.28 "Hg10 mi
7:35 PM45 °FScattered clouds.8 mph53%30.28 "Hg10 mi
7:15 PM45 °FSunny.6 mph54%30.28 "Hg10 mi
Weather by CustomWeather, © 2014

See weather overview